Location: Coupvray
(48.8929°N, 2.7967°E)
Time: 20:41:46
(UTC+00:00)

Landsat 5 - Visible Passes

Search period start: 20 October 2020 00:00
Search period end: 30 October 2020 00:00
Orbit: 528 x 655 km, 98.2° (Epoch: 20 October)

Date Brightness Start Highest point End Pass type
(mag) Time Alt. Az. Time Alt. Az. Time Alt. Az.
20 Oct 4.9 17:25:33 10° N 17:29:06 37° WNW 17:32:41 10° SW visible
21 Oct 5.3 17:34:02 10° N 17:37:27 31° WNW 17:40:52 10° SW visible
22 Oct 5.6 17:42:33 10° N 17:45:46 26° WNW 17:49:02 10° WSW visible
23 Oct 5.8 17:51:05 10° NNW 17:54:05 22° WNW 17:57:07 10° WSW visible
24 Oct 6.1 17:59:40 10° NNW 18:02:24 19° WNW 18:05:09 10° WSW visible
25 Oct 6.2 18:08:19 10° NNW 18:10:43 16° WNW 18:13:08 10° W visible
26 Oct 6.3 18:17:02 10° NNW 18:19:01 14° WNW 18:20:59 10° W visible
27 Oct 6.5 18:25:56 10° NW 18:27:18 12° WNW 18:28:40 10° WNW visible
29 Oct 3.8 17:05:13 10° N 17:09:06 66° WNW 17:13:03 10° SSW visible
